Location: ?????
(55.6500°N, 37.2500°E)
Time: 04:23:43
(UTC+00:00)

Cosmos 1953 - Pass Details

Date: 19 May 2025
Orbit: 485 x 502 km, 82.5° (Epoch: 15 June)

Event Time Altitude Azimuth Distance (km) Brightness Sun altitude
Rises 22:17:45 0° 353° (N) 2,572 7.2 -13.6°
Reaches altitude 10° 22:20:00 10° 3° (N) 1,687 6.2 -13.6°
Maximum altitude 22:23:24 34° 70° (ENE) 825 3.5 -13.4°
Drops below altitude 10° 22:26:47 10° 137° (SE) 1,679 4.5 -13.3°
Enters shadow 22:27:08 - 139° (SE) 1,810 4.6 -13.3°
